• In Kazakhstan
  • List of Countries
  • For 7 days
  • Water Temperature
  • Weather Map
  • News
  • Weather Widgets
  • user-avatar
    Login

    Hourly Weather Arhus

    Today, 18 January, Saturday

    Time Temperature Precipitation Wind Pressure Humidity
    00:00 +5°C° 0.1 mm 6 mps 754 mmHg 92%
    01:00 +6°C° 0 mm 5 mps 754 mmHg 92%
    02:00 +5°C° 0 mm 6 mps 754 mmHg 89%
    03:00 +5°C° 0 mm 6 mps 754 mmHg 87%
    04:00 +5°C° 0 mm 7 mps 754 mmHg 84%
    05:00 +4°C° 0.2 mm 8 mps 754 mmHg 84%
    06:00 +3°C° 0.2 mm 9 mps 754 mmHg 83%
    07:00 +4°C° 0 mm 8 mps 754 mmHg 81%
    08:00 +4°C° 0.4 mm 8 mps 755 mmHg 82%
    09:00 +4°C° 0.4 mm 8 mps 755 mmHg 84%
    10:00 +2°C° 0.4 mm 8 mps 755 mmHg 85%
    11:00 +4°C° 0.1 mm 8 mps 755 mmHg 82%
    12:00 +4°C° 0.1 mm 8 mps 756 mmHg 78%
    13:00 +5°C° 0.1 mm 8 mps 756 mmHg 75%
    14:00 +5°C° 0.2 mm 7 mps 757 mmHg 77%
    15:00 +4°C° 0.2 mm 7 mps 757 mmHg 79%
    16:00 +4°C° 0.2 mm 7 mps 757 mmHg 81%
    17:00 +4°C° 0 mm 6 mps 758 mmHg 81%
    18:00 +4°C° 0 mm 6 mps 759 mmHg 82%
    19:00 +3°C° 0 mm 6 mps 759 mmHg 82%
    20:00 +3°C° 0 mm 6 mps 760 mmHg 80%
    21:00 +3°C° 0 mm 6 mps 761 mmHg 78%
    22:00 +3°C° 0 mm 6 mps 761 mmHg 76%
    23:00 +3°C° 0 mm 6 mps 762 mmHg 78%

    Tomorrow, 19 January, Sunday

    Time Temperature Precipitation Wind Pressure Humidity
    00:00 +2°C° 0 mm 6 mps 762 mmHg 80%
    01:00 +2°C° 0 mm 6 mps 763 mmHg 83%
    02:00 +2°C° 0 mm 6 mps 763 mmHg 81%
    03:00 +2°C° 0 mm 6 mps 764 mmHg 80%
    04:00 +2°C° 0 mm 6 mps 765 mmHg 79%
    05:00 +2°C° 0 mm 6 mps 765 mmHg 77%
    06:00 +2°C° 0 mm 6 mps 766 mmHg 76%
    07:00 +2°C° 0 mm 6 mps 767 mmHg 74%
    08:00 +2°C° 0 mm 6 mps 767 mmHg 73%
    09:00 +2°C° 0 mm 6 mps 768 mmHg 72%
    10:00 +2°C° 0 mm 6 mps 769 mmHg 71%
    11:00 +2°C° 0 mm 5 mps 770 mmHg 67%
    12:00 +3°C° 0 mm 5 mps 770 mmHg 63%
    13:00 +5°C° 0 mm 4 mps 771 mmHg 59%
    14:00 +4°C° 0 mm 4 mps 772 mmHg 60%
    15:00 +4°C° 0 mm 4 mps 772 mmHg 61%
    16:00 +3°C° 0 mm 4 mps 773 mmHg 62%
    17:00 +3°C° 0 mm 4 mps 774 mmHg 67%
    18:00 +3°C° 0 mm 4 mps 774 mmHg 73%
    19:00 +1°C° 0 mm 4 mps 775 mmHg 78%
    20:00 +1°C° 0 mm 4 mps 775 mmHg 81%
    21:00 +1°C° 0 mm 4 mps 776 mmHg 84%
    22:00 +1°C° 0 mm 4 mps 776 mmHg 87%
    23:00 +1°C° 0 mm 4 mps 777 mmHg 89%

    Day after tomorrow, 20 January, Monday

    Time Temperature Precipitation Wind Pressure Humidity
    00:00 +3°C° 0 mm 4 mps 777 mmHg 90%
    01:00 +3°C° 0 mm 4 mps 777 mmHg 91%
    02:00 +3°C° 0 mm 4 mps 777 mmHg 91%
    03:00 +3°C° 0 mm 4 mps 777 mmHg 91%
    04:00 +2°C° 0 mm 5 mps 777 mmHg 91%
    05:00 +2°C° 0 mm 5 mps 777 mmHg 90%
    06:00 +2°C° 0 mm 5 mps 777 mmHg 88%
    07:00 +2°C° 0 mm 5 mps 777 mmHg 87%
    08:00 +2°C° 0 mm 5 mps 778 mmHg 86%
    09:00 +2°C° 0 mm 6 mps 778 mmHg 86%
    10:00 +3°C° 0 mm 6 mps 778 mmHg 85%
    11:00 +3°C° 0 mm 7 mps 778 mmHg 82%
    12:00 +4°C° 0 mm 7 mps 778 mmHg 80%
    13:00 +5°C° 0 mm 7 mps 778 mmHg 77%
    14:00 +4°C° 0 mm 7 mps 778 mmHg 78%
    15:00 +4°C° 0 mm 7 mps 777 mmHg 79%
    16:00 +4°C° 0 mm 7 mps 777 mmHg 80%
    17:00 +4°C° 0 mm 7 mps 777 mmHg 83%
    18:00 +3°C° 0 mm 6 mps 777 mmHg 85%
    19:00 +3°C° 0 mm 6 mps 777 mmHg 88%
    20:00 +3°C° 0 mm 7 mps 777 mmHg 89%
    21:00 +3°C° 0 mm 7 mps 777 mmHg 90%
    22:00 +3°C° 0 mm 7 mps 776 mmHg 91%
    23:00 +3°C° 0 mm 7 mps 776 mmHg 90%

    21 January, Tuesday

    Time Temperature Precipitation Wind Pressure Humidity
    00:00 +3°C° 0 mm 7 mps 776 mmHg 89%
    01:00 +2°C° 0 mm 8 mps 775 mmHg 88%
    02:00 +4°C° 0 mm 8 mps 775 mmHg 87%
    03:00 +4°C° 0 mm 8 mps 774 mmHg 87%
    04:00 +4°C° 0 mm 8 mps 774 mmHg 86%
    05:00 +4°C° 0 mm 8 mps 773 mmHg 86%
    06:00 +4°C° 0 mm 8 mps 773 mmHg 87%
    07:00 +2°C° 0 mm 8 mps 773 mmHg 87%
    08:00 +4°C° 0 mm 8 mps 773 mmHg 87%
    09:00 +4°C° 0 mm 8 mps 773 mmHg 86%
    10:00 +4°C° 0 mm 8 mps 772 mmHg 86%
    11:00 +4°C° 0 mm 8 mps 772 mmHg 84%
    12:00 +5°C° 0 mm 8 mps 772 mmHg 83%
    13:00 +5°C° 0 mm 8 mps 772 mmHg 81%
    14:00 +5°C° 0 mm 8 mps 771 mmHg 83%
    15:00 +6°C° 0 mm 7 mps 771 mmHg 84%
    16:00 +6°C° 0 mm 7 mps 771 mmHg 86%
    17:00 +5°C° 0 mm 7 mps 771 mmHg 83%
    18:00 +4°C° 0 mm 8 mps 771 mmHg 80%
    19:00 +4°C° 0 mm 8 mps 771 mmHg 78%
    20:00 +2°C° 0 mm 8 mps 771 mmHg 77%
    21:00 +2°C° 0 mm 8 mps 771 mmHg 75%
    22:00 +2°C° 0 mm 8 mps 771 mmHg 74%
    23:00 +2°C° 0 mm 8 mps 771 mmHg 75%

    22 January, Wednesday

    Time Temperature Precipitation Wind Pressure Humidity
    00:00 +2°C° 0 mm 7 mps 771 mmHg 75%
    01:00 +2°C° 0 mm 7 mps 771 mmHg 76%
    02:00 +1°C° 0 mm 8 mps 771 mmHg 76%
    03:00 +1°C° 0 mm 8 mps 770 mmHg 75%
    04:00 +2°C° 0 mm 9 mps 770 mmHg 75%
    05:00 +1°C° 0 mm 8 mps 770 mmHg 75%
    06:00 +1°C° 0 mm 8 mps 770 mmHg 75%
    07:00 +1°C° 0 mm 8 mps 770 mmHg 76%
    08:00 +3°C° 0 mm 7 mps 770 mmHg 76%
    09:00 +3°C° 0 mm 7 mps 770 mmHg 76%
    10:00 +3°C° 0 mm 6 mps 770 mmHg 76%
    11:00 +3°C° 0 mm 6 mps 771 mmHg 72%
    12:00 +4°C° 0 mm 6 mps 771 mmHg 69%
    13:00 +5°C° 0 mm 6 mps 771 mmHg 65%
    14:00 +5°C° 0 mm 5 mps 772 mmHg 67%
    15:00 +4°C° 0 mm 4 mps 772 mmHg 68%
    16:00 +4°C° 0 mm 4 mps 772 mmHg 70%
    17:00 +3°C° 0 mm 3 mps 772 mmHg 73%
    18:00 +2°C° 0 mm 3 mps 772 mmHg 76%
    19:00 +3°C° 0 mm 2 mps 772 mmHg 79%
    20:00 +3°C° 0 mm 2 mps 773 mmHg 79%
    21:00 +2°C° 0 mm 2 mps 773 mmHg 80%
    22:00 +3°C° 0 mm 1 mps 773 mmHg 80%
    23:00 +2°C° 0 mm 2 mps 773 mmHg 81%

    23 January, Thursday

    Time Temperature Precipitation Wind Pressure Humidity
    00:00 +2°C° 0 mm 2 mps 773 mmHg 82%
    01:00 +2°C° 0 mm 2 mps 773 mmHg 83%
    02:00 +1°C° 0 mm 3 mps 773 mmHg 84%
    03:00 +1°C° 0 mm 3 mps 773 mmHg 85%
    04:00 0°C° 0 mm 4 mps 772 mmHg 86%
    05:00 0°C° 0 mm 4 mps 772 mmHg 87%
    06:00 0°C° 0 mm 4 mps 772 mmHg 88%
    07:00 0°C° 0 mm 4 mps 771 mmHg 89%
    08:00 +1°C° 0 mm 5 mps 771 mmHg 89%
    09:00 +1°C° 0 mm 5 mps 771 mmHg 89%
    10:00 +2°C° 0 mm 5 mps 772 mmHg 90%
    11:00 +2°C° 0 mm 5 mps 771 mmHg 87%
    12:00 +3°C° 0 mm 6 mps 771 mmHg 85%
    13:00 +4°C° 0 mm 6 mps 771 mmHg 83%
    14:00 +4°C° 0 mm 6 mps 770 mmHg 85%
    15:00 +4°C° 0 mm 6 mps 770 mmHg 87%
    16:00 +5°C° 0 mm 6 mps 770 mmHg 89%
    17:00 +4°C° 0 mm 6 mps 770 mmHg 90%
    18:00 +5°C° 0 mm 5 mps 770 mmHg 91%
    19:00 +5°C° 0 mm 5 mps 769 mmHg 92%
    20:00 +5°C° 0 mm 5 mps 769 mmHg 92%
    21:00 +5°C° 0 mm 5 mps 769 mmHg 92%
    22:00 +5°C° 0 mm 5 mps 769 mmHg 92%
    23:00 +5°C° 0 mm 5 mps 769 mmHg 91%
    Show more